Regional Weather Roundup
Issued by NWS Kansas City/Pleasant Hill, MO

Home | Current Version | Previous Version | Text Only | Print | Product List | Glossary On
Versions: 1 2 3 4 5 6 7 8 9 10 11 12 13 14 15 16 17 18 19 20 21 22 23 24 25 26 27 28 29 30 31 32 33 34 35 36 37 38 39 40 41 42 43 44 45 46 47 48 49 50
000
ASUS43 KEAX 251710
RWREAX

WEATHER ROUNDUP FOR EASTERN KANSAS AND NORTHWEST MISSOURI
NATIONAL WEATHER SERVICE KANSAS CITY/PLEASANT HILL MO
1100 AM CST TUE NOV 25 2014

KSZ040-057-103>105-MOZ028-029-037-043-251800-
...KANSAS CITY METROPOLITAN AREA...

CITY           SKY/WX    TMP DP  RH WIND       PRES   REMARKS
K.C. INTL      SUNNY     32  12  43 SW8       30.20F WCI  25
K.C. DOWNTOWN  SUNNY     35   9  33 W6        30.22F WCI  30
LEES SUMMIT    SUNNY     33   8  35 W7        30.21F WCI  27
OLATHE - IXD   SUNNY     33  10  38 SW9       30.22F WCI  25
OLATHE - OJC   SUNNY     32  11  41 W8        30.21F WCI  25
LAWRENCE       SUNNY     33   8  35 VRB5      30.23F WCI  29

$$

MOZ001>008-011>017-020>025-030>033-038>040-044>046-053-054-251800-
...NORTHERN AND CENTRAL MISSOURI...

CITY           SKY/WX    TMP DP  RH WIND       PRES   REMARKS
ST. JOSEPH     SUNNY     32  11  41 SW7       30.21F WCI  26
MOSBY          SUNNY     32  10  40 W6        30.22F WCI  26
WARRENSBURG    SUNNY     34  14  44 SW7       30.23S WCI  28
WHITEMAN AFB   SUNNY     33  14  45 W5        30.22S WCI  29
CLINTON        SUNNY     34  18  51 SW5       30.25S WCI  30
SEDALIA        SUNNY     33  16  49 SW6       30.23S WCI  28
WARSAW         NOT AVBL
MARSHALL       SUNNY     34  19  55 W7        30.23S WCI  28
CHILLICOTHE      N/A     30  15  53 VRB3      30.22S
MOBERLY        SUNNY     32  16  51 CALM      30.20S
KIRKSVILLE     SUNNY     28  18  66 W7        30.18S WCI  21

$$

MOZ041-047>049-056>058-063>065-088>090-097-251800-
...EASTERN AND SOUTHERN MISSOURI...

CITY           SKY/WX    TMP DP  RH WIND       PRES   REMARKS
ST. LOUIS INTL MOSUNNY   36  22  56 VRB7      30.21F WCI  30
SPIRIT OF STL  SUNNY     34  22  61 SW7       30.21F WCI  28
COLUMBIA       SUNNY     33  18  53 W5        30.20F WCI  29
JEFFERSON CITY SUNNY     33  18  53 CALM      30.23F
MEXICO         SUNNY     34  25  69 W6        30.19F WCI  29
ROLLA          SUNNY     32  19  58 W7        30.18F WCI  26
LEBANON        SUNNY     36  18  48 W6        30.22S WCI  31
OSAGE BEACH    SUNNY     36  16  44 SW6       30.22F WCI  31
SPRINGFIELD    SUNNY     36  17  46 W8        30.23S WCI  30
BRANSON        SUNNY     39  18  41 NW6       30.27R WCI  35
NEVADA         SUNNY     36  14  41 SW6       30.26S WCI  31
JOPLIN         SUNNY     36  17  46 W6        30.27S WCI  31
WEST PLAINS    SUNNY     38  18  44 NW6       30.24S WCI  33

$$

IAZ060-094-KSZ022-034>040-054-083-096-NEZ052-066-093-251800-
...KANSAS...SOUTHEAST NEBRASKA AND IOWA...

CITY           SKY/WX    TMP DP  RH WIND       PRES   REMARKS
TOPEKA         SUNNY     37   9  31 VRB5      30.22F WCI  33
MANHATTAN      SUNNY     39  20  46 SW12      30.19F WCI  32
EMPORIA        SUNNY     39  14  36 SW8       30.21F WCI  33
CHANUTE        SUNNY     36  11  35 VRB3      30.25F
WICHITA        SUNNY     42  20  41 SW9       30.22F
OMAHA          MOSUNNY   32  10  40 S8        30.14F WCI  25
LINCOLN        SUNNY     36  24  62 S6        30.12F WCI  31
FALLS CITY     SUNNY     35  10  35 SW8       30.17F WCI  29
LAMONI         SUNNY     28  14  55 SW5       30.16S WCI  23
DES MOINES     MOSUNNY   29  12  49 W6        30.15R WCI  23

$$




USA.gov is the U.S. government's official web portal to all federal, state and local government web resources and services.